Location: Aldenham
(51.6667°N, 0.3500°W)
Time: 15:40:21
(UTC+00:00)

Transit 2A Rocket - Pass Details

Date: 20 February 2026
Orbit: 583 x 900 km, 66.7° (Epoch: 10 March)

Event Time Altitude Azimuth Distance (km) Brightness Sun altitude
Rises 20:43:39 0° 309° (NW) 3,490 9.5 -30.9°
Reaches altitude 10° 20:46:57 10° 327° (NNW) 2,513 8.3 -31.4°
Enters shadow 20:51:05 20° 12° (NNE) 1,868 7.1 -31.9°
